1487034000.27,59986,10.38,74288.5,-10.31,-36.25,-36.61,0,*68
1487034001.51,59987,10.38,74290.5,-10.31,-36.37,-36.73,0,*69
1487034002.73,59988,10.38,74288.3,-10.31,-36.55,-36.73,0,*62
1487034003.99,59989,10.38,74288.8,-10.33,-36.43,-36.79,0,*6C
1487034005.28,59990,10.38,74288.0,-10.33,-36.61,-36.79,0,*64
1487034006.52,59991,10.38,74292.5,-10.31,-36.49,-36.73,0,*67
1487034007.75,59992,10.38,74290.5,-10.31,-36.43,-36.79,0,*64
1487034009.04,59993,10.38,74290.8,-10.33,-36.49,-36.79,0,*6D
1487034010.31,59994,10.38,74290.5,-10.33,-36.25,-36.67,0,*6F
1487034011.57,59995,10.38,74290.8,-10.33,-36.13,-36.43,0,*6D
1487034012.87,59996,10.44,74294.5,-10.33,-36.25,-36.49,0,*61
1487034014.16,59997,10.38,74294.0,-10.33,-36.25,-36.79,0,*63
1487034015.43,59998,10.38,74290.0,-10.33,-36.25,-36.67,0,*63
1487034016.67,59999,10.38,74288.5,-10.31,-36.25,-36.73,0,*65
1487034017.93,60000,10.38,74288.5,-10.31,-36.25,-36.61,0,*65
1487034019.2,60001,10.38,74286.3,-10.31,-36.37,-36.61,0,*67
1487034020.46,60002,10.38,74290.8,-10.33,-36.31,-36.61,0,*60
1487034021.73,60003,10.38,74290.3,-10.33,-36.43,-36.49,0,*6E
1487034022.95,60004,10.38,74294.5,-10.31,-36.19,-36.55,0,*69
1487034024.18,60005,10.38,74288.8,-10.31,-36.19,-36.61,0,*6F
1487034025.42,60006,10.38,74290.5,-10.33,-36.07,-36.43,0,*61
1487034026.72,60007,10.38,74288.5,-10.33,-36.25,-36.49,0,*6A
1487034027.98,60008,10.38,74288.0,-10.33,-36.31,-36.49,0,*60
1487034029.23,60009,10.38,74288.0,-10.31,-36.25,-36.55,0,*6B
1487034030.48,60010,10.38,74290.5,-10.31,-36.25,-36.55,0,*63
1487034031.74,60011,10.38,74290.5,-10.33,-36.31,-36.61,0,*62
1487034032.99,60012,10.38,74288.3,-10.31,-36.25,-36.55,0,*61
1487034034.25,60013,10.38,74290.0,-10.33,-36.13,-36.43,0,*60
1487034035.49,60014,10.38,74290.0,-10.31,-36.19,-36.61,0,*6F
1487034036.73,60015,10.38,74290.5,-10.31,-36.25,-36.73,0,*62
1487034037.99,60016,10.38,74288.5,-10.31,-36.25,-36.61,0,*62
1487034039.24,60017,10.38,74290.3,-10.33,-36.07,-36.31,0,*64
1487034040.47,60018,10.38,74288.8,-10.31,-36.19,-36.61,0,*63
1487034041.71,60019,10.38,74290.3,-10.31,-36.25,-36.73,0,*6E
1487034042.96,60020,10.38,74290.3,-10.33,-36.31,-36.67,0,*66
1487034044.17,60021,10.38,74288.8,-10.31,-36.19,-36.43,0,*69
1487034045.41,60022,10.38,74288.0,-10.31,-36.25,-36.73,0,*66
1487034046.67,60023,10.38,74288.8,-10.31,-36.25,-36.37,0,*67
1487034047.91,60024,10.38,74288.3,-10.31,-36.07,-36.37,0,*60
1487034049.14,60025,10.38,74290.0,-10.31,-36.07,-36.37,0,*61
1487034050.36,60026,10.38,74288.8,-10.31,-36.19,-36.55,0,*69
1487034051.57,60027,10.38,74288.0,-10.31,-36.19,-36.43,0,*6F
1487034052.85,60028,10.38,74290.3,-10.29,-36.07,-36.25,0,*66
1487034054.09,60029,10.38,74290.8,-10.31,-36.01,-36.25,0,*68
1487034055.37,60030,10.38,74290.0,-10.29,-36.25,-36.55,0,*68
1487034056.66,60031,10.38,74292.0,-10.29,-36.25,-36.61,0,*6E
1487034057.9,60032,10.38,74288.0,-10.31,-36.37,-36.73,0,*64
1487034059.14,60033,10.38,74290.3,-10.31,-36.37,-36.55,0,*61
1487034060.42,60034,10.38,74286.3,-10.29,-36.25,-36.55,0,*6C
1487034061.72,60035,10.38,74282.5,-10.29,-36.25,-36.61,0,*6A
1487034062.99,60036,10.38,74282.3,-10.29,-36.37,-36.73,0,*69
1487034064.23,60037,10.38,74286.5,-10.29,-36.55,-36.73,0,*6C
1487034065.5,60038,10.38,74280.5,-10.33,-36.31,-36.61,0,*69
1487034066.74,60039,10.38,74284.0,-10.31,-36.37,-36.73,0,*6F
1487034067.98,60040,10.38,74284.3,-10.31,-36.25,-36.43,0,*61
1487034069.27,60041,10.38,74288.5,-10.33,-36.25,-36.61,0,*62
1487034070.51,60042,10.38,74290.5,-10.31,-36.25,-36.43,0,*63
1487034071.76,60043,10.38,74284.8,-10.31,-36.25,-36.43,0,*62
1487034073.0,60044,10.38,74286.3,-10.31,-36.25,-36.43,0,*65
1487034074.24,60045,10.38,74290.3,-10.31,-36.37,-36.55,0,*60
1487034075.46,60046,10.38,74288.5,-10.31,-35.77,-36.01,0,*65
1487034076.71,60047,10.38,74284.3,-10.31,-35.89,-36.25,0,*63
1487034077.92,60048,10.38,74286.3,-10.31,-36.19,-36.43,0,*66
1487034079.18,60049,10.38,74284.5,-10.33,-36.43,-36.61,0,*6A
1487034080.46,60050,10.38,74288.0,-10.29,-36.25,-36.43,0,*69
1487034081.7,60051,10.38,74288.8,-10.29,-35.89,-36.19,0,*62
1487034082.97,60052,10.38,74288.0,-10.29,-35.83,-35.89,0,*61
1487034084.21,60053,10.38,74286.3,-10.29,-36.01,-36.19,0,*63
1487034085.46,60054,10.38,74286.8,-10.29,-36.19,-36.55,0,*65
1487034086.73,60055,10.38,74284.3,-10.29,-36.37,-36.73,0,*6C
1487034088.0,60056,10.38,74288.3,-10.29,-36.25,-36.43,0,*6F
1487034089.24,60057,10.38,74292.8,-10.27,-35.95,-36.19,0,*67
1487034090.5,60058,10.38,74290.8,-10.29,-36.19,-36.37,0,*6D
1487034091.78,60059,10.38,74288.8,-10.29,-36.25,-36.55,0,*67
1487034093.02,60060,10.38,74290.5,-10.29,-36.07,-36.43,0,*6A
1487034094.29,60061,10.38,74292.3,-10.29,-36.19,-36.37,0,*67
1487034095.52,60062,10.38,74292.3,-10.27,-35.95,-36.19,0,*61
1487034096.79,60063,10.38,74296.5,-10.29,-35.65,-36.01,0,*68
1487034098.06,60064,10.38,74290.0,-10.27,-35.65,-35.95,0,*6F
1487034099.3,60065,10.38,74294.5,-10.29,-36.01,-36.07,0,*69
1487034100.57,60066,10.44,74290.0,-10.29,-36.01,-36.25,0,*6A
1487034101.81,60067,10.38,74280.3,-10.27,-35.83,-36.19,0,*63
1487034103.05,60068,10.38,74282.3,-10.27,-35.83,-36.01,0,*65
1487034104.26,60069,10.38,74282.8,-10.27,-36.01,-36.19,0,*64
1487034105.52,60070,10.38,74284.0,-10.27,-36.13,-36.37,0,*63
1487034106.76,60071,10.38,74282.0,-10.29,-36.07,-36.43,0,*6A
1487034108.02,60072,10.38,74290.3,-10.27,-36.13,-36.49,0,*68
1487034109.25,60073,10.38,74284.0,-10.27,-36.01,-36.37,0,*63
1487034110.49,60074,10.38,74282.3,-10.27,-36.13,-36.31,0,*61
1487034111.77,60075,10.38,74288.0,-10.25,-36.13,-36.37,0,*64
1487034113.06,60076,10.38,74286.0,-10.25,-36.13,-36.49,0,*6E
1487034114.29,60077,10.38,74290.5,-10.27,-36.19,-36.49,0,*67
1487034115.51,60078,10.38,74288.0,-10.27,-36.31,-36.55,0,*6F
1487034116.73,60079,10.38,74290.3,-10.27,-36.19,-36.55,0,*64
1487034117.97,60080,10.38,74290.8,-10.27,-36.01,-36.13,0,*69
1487034119.21,60081,10.38,74286.8,-10.29,-35.89,-36.19,0,*6F
1487034120.45,60082,10.38,74288.0,-10.23,-35.89,-36.25,0,*69
1487034121.72,60083,10.38,74288.8,-10.25,-35.95,-36.19,0,*6C
1487034122.96,60084,10.38,74292.5,-10.23,-35.89,-35.95,0,*67
1487034124.2,60085,10.38,74288.5,-10.25,-35.59,-35.77,0,*61
1487034125.47,60086,10.38,74288.5,-10.25,-35.95,-36.19,0,*69
1487034126.68,60087,10.38,74290.3,-10.23,-35.77,-36.07,0,*6D
1487034127.96,60088,10.38,74290.0,-10.25,-35.83,-36.01,0,*69
1487034129.23,60089,10.38,74290.8,-10.25,-35.71,-35.95,0,*6B
1487034130.52,60090,10.38,74288.3,-10.25,-35.95,-36.13,0,*64
1487034131.79,60091,10.38,74288.0,-10.25,-35.71,-35.83,0,*65
1487034133.05,60092,10.38,74280.8,-10.23,-35.95,-36.13,0,*60
1487034134.29,60093,10.38,74282.8,-10.23,-35.95,-36.31,0,*61
1487034135.51,60094,10.44,74284.3,-10.23,-36.07,-36.43,0,*6B
1487034136.74,60095,10.38,74280.5,-10.23,-36.13,-36.43,0,*6F
1487034138.01,60096,10.38,74280.0,-10.23,-36.25,-36.49,0,*63
1487034139.27,60097,10.38,74284.8,-10.23,-36.13,-36.49,0,*67
1487034140.5,60098,10.38,74290.5,-10.23,-36.31,-36.61,0,*62
1487034141.77,60099,10.38,74290.3,-10.25,-35.95,-36.31,0,*6D
1487034142.98,60100,10.38,74284.8,-10.23,-35.89,-36.07,0,*62
1487034144.2,60101,10.38,74288.3,-10.23,-36.07,-36.43,0,*66
1487034145.46,60102,10.38,74284.3,-10.25,-36.13,-36.31,0,*63
1487034146.67,60103,10.38,74288.3,-10.23,-36.07,-36.31,0,*61
1487034147.89,60104,10.38,74290.8,-10.23,-36.07,-36.31,0,*66
1487034149.13,60105,10.38,74284.5,-10.23,-36.07,-36.61,0,*62
1487034150.42,60106,10.38,74288.3,-10.21,-35.95,-36.25,0,*6B
1487034151.69,60107,10.38,74288.0,-10.23,-35.95,-36.13,0,*6D
1487034152.96,60108,10.38,74288.3,-10.23,-35.95,-36.25,0,*67
1487034154.17,60109,10.38,74290.5,-10.23,-36.07,-36.31,0,*6B
1487034155.41,60110,10.38,74284.0,-10.23,-35.77,-36.13,0,*67
1487034156.62,60111,10.38,74286.0,-10.23,-35.89,-36.07,0,*62
1487034157.84,60112,10.38,74290.0,-10.23,-35.89,-36.31,0,*64
1487034159.13,60113,10.38,74286.8,-10.21,-36.25,-36.49,0,*6D
1487034160.42,60114,10.38,74284.3,-10.21,-36.25,-36.61,0,*60
1487034161.68,60115,10.38,74288.0,-10.21,-36.43,-36.61,0,*61
1487034162.95,60116,10.38,74286.0,-10.21,-36.07,-36.49,0,*68
1487034164.19,60117,10.38,74288.8,-10.21,-36.31,-36.67,0,*60
1487034165.43,60118,10.38,74290.3,-10.23,-36.49,-36.67,0,*62
1487034166.67,60119,10.38,74290.5,-10.23,-36.43,-36.79,0,*66
1487034167.91,60120,10.38,74290.3,-10.23,-36.37,-36.73,0,*65
1487034169.13,60121,10.38,74290.8,-10.23,-36.31,-36.67,0,*67
1487034170.39,60122,10.38,74286.8,-10.23,-36.25,-36.61,0,*67
1487034171.63,60123,10.38,74288.5,-10.23,-36.31,-36.61,0,*63
1487034172.89,60124,10.38,74290.5,-10.23,-36.13,-36.49,0,*6E
1487034174.12,60125,10.38,74290.0,-10.23,-36.13,-36.43,0,*65
1487034175.38,60126,10.38,74290.3,-10.25,-36.19,-36.49,0,*60
1487034176.62,60127,10.38,74288.3,-10.23,-35.95,-36.07,0,*6A
1487034177.83,60128,10.38,74288.5,-10.23,-35.89,-36.07,0,*68
1487034179.05,60129,10.38,74288.3,-10.23,-36.07,-36.43,0,*6C
1487034180.29,60130,10.38,74288.5,-10.23,-35.95,-36.31,0,*69
1487034181.53,60131,10.38,74284.3,-10.23,-35.95,-36.43,0,*6D
1487034182.76,60132,10.38,74290.0,-10.23,-36.13,-36.43,0,*63
1487034184.03,60133,10.38,74288.8,-10.23,-36.25,-36.49,0,*6D
1487034185.29,60134,10.38,74284.3,-10.23,-36.25,-36.61,0,*60
1487034186.53,60135,10.38,74284.0,-10.23,-36.31,-36.61,0,*64
1487034187.79,60136,10.38,74290.5,-10.23,-36.13,-36.61,0,*67
1487034189.02,60137,10.38,74288.5,-10.23,-36.13,-36.43,0,*66
1487034190.28,60138,10.38,74288.3,-10.23,-36.13,-36.49,0,*63
1487034191.53,60139,10.38,74286.3,-10.25,-36.31,-36.67,0,*68
1487034192.79,60140,10.38,74288.8,-10.25,-36.49,-36.73,0,*6C
1487034194.01,60141,10.38,74288.5,-10.23,-36.31,-36.67,0,*61
1487034195.25,60142,10.38,74284.0,-10.23,-36.13,-36.43,0,*64
1487034196.48,60143,10.38,74290.8,-10.23,-36.07,-36.49,0,*6A
1487034197.72,60144,10.38,74290.0,-10.23,-35.95,-36.31,0,*6A
1487034198.96,60145,10.38,74290.0,-10.23,-36.07,-36.61,0,*66
1487034200.25,60146,10.38,74288.8,-10.21,-36.25,-36.49,0,*6D
1487034201.52,60147,10.38,74288.3,-10.21,-36.31,-36.61,0,*63
1487034202.8,60148,10.38,74290.5,-10.21,-36.13,-36.61,0,*6C
1487034204.06,60149,10.38,74290.0,-10.23,-36.13,-36.49,0,*65
1487034205.29,60150,10.38,74286.0,-10.23,-36.13,-36.31,0,*62
1487034206.51,60151,10.38,74290.3,-10.23,-36.07,-36.43,0,*63
1487034207.72,60152,10.38,74290.0,-10.23,-36.07,-36.31,0,*65
1487034208.94,60153,10.38,74290.5,-10.23,-36.07,-36.43,0,*61
1487034210.19,60154,10.38,74288.5,-10.23,-36.13,-36.49,0,*69
1487034211.46,60155,10.38,74286.3,-10.23,-35.95,-36.13,0,*6A
1487034212.7,60156,10.38,74290.5,-10.23,-35.95,-36.43,0,*6C
1487034213.96,60157,10.44,74292.0,-10.23,-36.13,-36.49,0,*6A
1487034215.24,60158,10.38,74288.8,-10.21,-36.13,-36.49,0,*67
1487034216.48,60159,10.38,74290.0,-10.21,-36.07,-36.31,0,*6C
1487034217.72,60160,10.38,74288.3,-10.21,-36.07,-36.31,0,*66
1487034219.01,60161,10.38,74290.0,-10.21,-36.25,-36.49,0,*68
1487034220.31,60162,10.38,74290.5,-10.21,-36.25,-36.61,0,*61
1487034221.57,60163,10.38,74286.8,-10.21,-36.13,-36.31,0,*60
1487034222.84,60164,10.38,74288.3,-10.21,-36.07,-36.25,0,*67
1487034224.1,60165,10.38,74292.5,-10.21,-35.89,-36.13,0,*66
1487034225.37,60166,10.38,74288.0,-10.21,-36.07,-36.13,0,*60
1487034226.63,60167,10.38,74288.3,-10.21,-35.89,-36.13,0,*64
1487034227.92,60168,10.38,74292.0,-10.21,-35.95,-36.13,0,*66
1487034229.16,60169,10.38,74292.3,-10.21,-36.07,-36.43,0,*6A
1487034230.42,60170,10.38,74288.8,-10.21,-36.13,-36.43,0,*67
1487034231.69,60171,10.38,74290.3,-10.21,-36.13,-36.31,0,*63
1487034232.95,60172,10.38,74290.8,-10.21,-36.13,-36.31,0,*60
1487034234.24,60173,10.38,74292.8,-10.21,-36.25,-36.49,0,*6B
1487034235.5,60174,10.38,74290.8,-10.21,-36.13,-36.31,0,*66
1487034236.8,60175,10.38,74294.3,-10.21,-35.95,-36.25,0,*6F
1487034238.09,60176,10.38,74290.8,-10.21,-35.95,-36.13,0,*69
1487034239.38,60177,10.38,74292.0,-10.21,-35.95,-36.13,0,*68
1487034240.62,60178,10.38,74294.5,-10.19,-35.89,-36.25,0,*64
1487034241.84,60179,10.38,74292.5,-10.19,-36.07,-36.31,0,*65
1487034243.05,60180,10.38,74292.3,-10.19,-35.89,-36.19,0,*6C
1487034244.3,60181,10.38,74284.8,-10.19,-35.83,-36.01,0,*6E
1487034245.52,60182,10.38,74288.8,-10.19,-36.01,-36.19,0,*6D
1487034246.81,60183,10.38,74284.8,-10.21,-35.95,-36.25,0,*66
1487034248.06,60184,10.38,74284.5,-10.19,-36.01,-36.25,0,*64
1487034249.27,60185,10.38,74284.8,-10.15,-36.07,-36.43,0,*6F
1487034250.49,60186,10.38,74286.8,-10.19,-36.01,-36.55,0,*61
1487034251.74,60187,10.38,74286.3,-10.19,-36.37,-36.55,0,*65
1487034252.99,60188,10.38,74284.5,-10.19,-36.25,-36.55,0,*69
1487034254.25,60189,10.38,74288.5,-10.21,-36.31,-36.61,0,*61
1487034255.49,60190,10.38,74286.8,-10.19,-36.31,-36.49,0,*68
1487034256.71,60191,10.38,74288.0,-10.19,-36.19,-36.55,0,*6E
1487034257.98,60192,10.38,74288.8,-10.21,-36.31,-36.61,0,*6B
1487034259.22,60193,10.38,74288.0,-10.19,-36.01,-36.25,0,*62
1487034260.44,60194,10.38,74286.0,-10.19,-36.07,-36.55,0,*64
1487034261.74,60195,10.38,74290.5,-10.21,-36.25,-36.49,0,*63
1487034263.0,60196,10.38,74288.3,-10.21,-36.13,-36.31,0,*6A
1487034264.21,60197,10.38,74288.0,-10.19,-35.89,-36.07,0,*65
1487034265.42,60198,10.38,74286.8,-10.19,-36.19,-36.43,0,*60
1487034266.64,60199,10.38,74286.3,-10.19,-36.07,-36.43,0,*6E
1487034267.93,60200,10.38,74294.0,-10.21,-36.13,-36.49,0,*69
1487034269.22,60201,10.38,74288.0,-10.21,-36.25,-36.61,0,*67
1487034270.44,60202,10.38,74288.5,-10.19,-36.07,-36.55,0,*68
1487034271.73,60203,10.38,74288.5,-10.21,-36.25,-36.49,0,*6F
1487034272.97,60204,10.38,74288.8,-10.21,-35.77,-36.07,0,*66
1487034274.24,60205,10.38,74288.5,-10.21,-35.65,-35.89,0,*61
1487034275.45,60206,10.38,74290.8,-10.19,-35.47,-35.71,0,*6E
1487034276.72,60207,10.38,74288.3,-10.19,-35.65,-35.83,0,*62
1487034277.97,60208,10.38,74286.8,-10.19,-35.83,-35.89,0,*6F
1487034279.18,60209,10.38,74286.5,-10.19,-35.89,-36.07,0,*61
1487034280.42,60210,10.38,74284.5,-10.19,-36.07,-36.37,0,*6F
1487034281.64,60211,10.38,74290.3,-10.19,-36.07,-36.43,0,*6D
1487034282.88,60212,10.38,74288.8,-10.15,-36.07,-36.25,0,*62
1487034284.08,60213,10.38,74284.0,-10.15,-35.89,-36.07,0,*66
1487034285.33,60214,10.38,74286.3,-10.15,-35.83,-36.01,0,*6D
1487034286.53,60215,10.38,74288.3,-10.15,-36.01,-36.19,0,*6C
1487034287.77,60216,10.38,74286.3,-10.15,-36.07,-36.37,0,*65
1487034289.0,60217,10.38,74288.3,-10.15,-36.07,-36.37,0,*64
1487034290.23,60218,10.38,74284.8,-10.15,-36.07,-36.37,0,*6B
1487034291.46,60219,10.38,74284.0,-10.15,-36.07,-36.37,0,*6A
1487034292.69,60220,10.38,74288.8,-10.15,-36.07,-36.37,0,*60
1487034293.92,60221,10.38,74290.3,-10.15,-36.01,-36.37,0,*67
1487034295.2,60222,10.38,74290.3,-10.13,-35.77,-35.95,0,*6B
1487034296.4,60223,10.38,74288.3,-10.15,-36.01,-36.19,0,*69
1487034297.62,60224,10.38,74288.5,-10.15,-36.07,-36.43,0,*67
1487034298.82,60225,10.38,74288.0,-10.15,-35.89,-36.07,0,*63
1487034300.04,60226,10.38,74290.3,-10.15,-35.59,-35.77,0,*69
1487034301.3,60227,10.38,74288.5,-10.13,-35.35,-35.59,0,*68
1487034302.54,60228,10.38,74284.8,-10.13,-35.59,-35.77,0,*61
1487034303.78,60229,10.38,74290.8,-10.15,-35.77,-35.83,0,*61
1487034305.01,60230,10.38,74288.3,-10.15,-35.83,-36.19,0,*62
1487034306.22,60231,10.38,74290.3,-10.15,-35.89,-36.19,0,*69
1487034307.51,60232,10.38,74292.5,-10.13,-35.83,-36.13,0,*6C
1487034308.8,60233,10.38,74290.0,-10.13,-35.65,-35.95,0,*68
1487034310.04,60234,10.38,74286.5,-10.13,-35.59,-35.77,0,*6C
1487034311.29,60235,10.38,74286.8,-10.09,-35.53,-35.89,0,*6D
1487034312.51,60236,10.38,74290.3,-10.09,-35.71,-35.89,0,*6E
1487034313.76,60237,10.38,74286.5,-10.09,-35.59,-35.95,0,*68
1487034315.02,60238,10.38,74288.3,-10.09,-35.77,-35.95,0,*6B
1487034316.24,60239,10.38,74288.3,-10.09,-35.89,-36.07,0,*63
1487034317.48,60240,10.38,74286.3,-10.07,-35.89,-36.07,0,*63
1487034318.74,60241,10.38,74290.3,-10.07,-35.77,-36.13,0,*66
1487034319.99,60242,10.38,74288.0,-10.09,-35.89,-36.25,0,*6F
1487034321.21,60243,10.38,74294.8,-10.09,-36.07,-36.43,0,*6B
1487034322.49,60244,10.38,74288.8,-10.09,-35.95,-36.25,0,*64
1487034323.74,60245,10.38,74290.8,-10.09,-35.95,-36.31,0,*60
1487034325.0,60246,10.38,74288.5,-10.07,-35.59,-35.95,0,*60
1487034326.25,60247,10.38,74290.3,-10.07,-35.59,-35.89,0,*6C
1487034327.49,60248,10.38,74288.8,-10.07,-35.77,-36.07,0,*6A
1487034328.73,60249,10.38,74288.8,-10.07,-35.77,-36.07,0,*6B
1487034329.99,60250,10.38,74288.0,-10.09,-35.77,-35.95,0,*65
1487034331.22,60251,10.38,74290.0,-10.07,-35.47,-35.71,0,*63
1487034332.47,60252,10.38,74290.3,-10.07,-35.59,-35.89,0,*68
1487034333.74,60253,10.38,74286.3,-10.07,-35.89,-35.95,0,*69
1487034334.98,60254,10.38,74288.5,-10.07,-35.77,-36.07,0,*67
1487034336.2,60255,10.38,74286.3,-10.05,-35.59,-35.89,0,*6D
1487034337.42,60256,10.38,74286.5,-10.05,-35.59,-35.77,0,*6F
1487034338.68,60257,10.38,74286.0,-10.03,-35.65,-35.89,0,*66
1487034339.91,60258,10.38,74284.3,-10.05,-35.71,-35.89,0,*6A
1487034341.15,60259,10.38,74286.3,-10.03,-35.71,-36.01,0,*6E
1487034342.44,60260,10.38,74290.5,-10.03,-35.53,-35.83,0,*6D
1487034343.68,60261,10.38,74290.3,-10.05,-35.77,-36.13,0,*66
1487034344.94,60262,10.38,74290.0,-10.03,-36.01,-36.37,0,*67
1487034346.18,60263,10.38,74290.5,-10.05,-35.77,-36.13,0,*64
1487034347.44,60264,10.38,74286.5,-10.03,-35.83,-36.07,0,*6B
1487034348.68,60265,10.38,74288.8,-10.05,-35.89,-36.13,0,*63
1487034349.95,60266,10.38,74286.8,-10.03,-36.01,-36.25,0,*60
1487034351.18,60267,10.38,74284.3,-10.03,-35.71,-36.07,0,*65
1487034352.44,60268,10.38,74284.8,-10.03,-36.01,-36.37,0,*6D
1487034353.66,60269,10.38,74286.5,-10.05,-36.07,-36.43,0,*6F
1487034354.87,60270,10.38,74290.5,-10.05,-36.07,-36.43,0,*67
1487034356.11,60271,10.38,74288.3,-10.03,-35.89,-36.19,0,*6A
1487034357.37,60272,10.38,74292.3,-10.03,-36.01,-36.37,0,*66
1487034358.61,60273,10.38,74286.8,-10.03,-35.89,-36.19,0,*68
1487034359.85,60274,10.38,74290.5,-10.03,-35.89,-36.07,0,*60
1487034361.09,60275,10.38,74288.5,-10.05,-35.83,-36.31,0,*68
1487034362.3,60276,10.38,74290.3,-10.05,-35.89,-36.43,0,*64
1487034363.52,60277,10.38,74288.5,-10.05,-35.59,-35.89,0,*6D
1487034364.81,60278,10.38,74290.5,-10.03,-35.65,-35.83,0,*61
1487034366.05,60279,10.38,74290.0,-10.01,-35.65,-35.77,0,*69
1487034367.3,60280,10.38,74288.0,-10.01,-35.59,-35.95,0,*6C
1487034368.56,60281,10.38,74288.3,-10.01,-35.95,-36.13,0,*60
1487034369.8,60282,10.38,74284.3,-10.03,-36.01,-36.19,0,*65
1487034371.02,60283,10.38,74286.3,-10.05,-36.07,-36.43,0,*6B
1487034372.28,60284,10.38,74286.0,-10.03,-36.07,-36.37,0,*69
1487034373.54,60285,10.38,74286.0,-10.03,-36.19,-36.37,0,*67
1487034374.81,60286,10.38,74290.0,-10.03,-36.25,-36.55,0,*6F
1487034376.05,60287,10.38,74290.8,-10.05,-36.31,-36.49,0,*60
1487034377.32,60288,10.38,74288.5,-10.03,-35.89,-36.25,0,*63
1487034378.59,60289,10.38,74286.0,-10.03,-36.07,-36.25,0,*67
1487034379.85,60290,10.38,74284.3,-10.03,-36.07,-36.37,0,*6C
1487034381.12,60291,10.38,74284.5,-10.03,-35.89,-36.25,0,*6B
1487034382.39,60292,10.38,74290.5,-10.03,-35.89,-36.25,0,*68
1487034383.65,60293,10.38,74284.5,-10.03,-35.89,-36.25,0,*69
1487034384.89,60294,10.38,74286.8,-10.03,-35.89,-36.19,0,*61
1487034386.13,60295,10.38,74284.3,-10.03,-35.89,-36.19,0,*60
1487034387.39,60296,10.38,74288.5,-10.03,-35.83,-36.19,0,*69
1487034388.66,60297,10.38,74286.5,-10.03,-35.83,-36.19,0,*68
1487034389.92,60298,10.38,74286.8,-10.01,-35.83,-36.13,0,*6F
1487034391.16,60299,10.38,74286.0,-10.01,-35.95,-36.19,0,*63
1487034392.43,60300,10.38,74284.8,-10.01,-35.83,-36.13,0,*6F
1487034393.66,60301,10.38,74286.0,-10.01,-35.77,-36.01,0,*66
1487034394.88,60302,10.38,74288.5,-10.01,-35.59,-35.77,0,*6B
1487034396.1,60303,10.38,74290.0,-10.01,-35.47,-35.77,0,*65
1487034397.32,60304,10.38,74286.3,-10.01,-35.77,-36.01,0,*63
1487034398.61,60305,10.38,74286.5,-9.99,-35.95,-36.13,0,*54
1487034399.87,60306,10.38,74290.8,-9.99,-35.83,-36.19,0,*5A
1487034401.13,60307,10.38,74286.5,-9.99,-35.65,-36.01,0,*5A
1487034402.35,60308,10.38,74284.5,-10.01,-35.77,-36.01,0,*6F
1487034403.63,60309,10.38,74290.0,-9.99,-35.65,-35.83,0,*5D
1487034404.89,60310,10.38,74290.3,-9.99,-35.95,-36.19,0,*5A
1487034406.13,60311,10.38,74284.5,-9.99,-36.01,-36.31,0,*5F
1487034407.35,60312,10.38,74288.8,-10.01,-36.31,-36.55,0,*64
1487034408.63,60313,10.38,74290.3,-9.99,-36.13,-36.37,0,*58
1487034409.91,60314,10.38,74290.3,-9.99,-35.95,-36.37,0,*52
1487034411.18,60315,10.38,74286.5,-9.99,-36.13,-36.37,0,*5E
1487034412.42,60316,10.38,74290.8,-10.01,-36.01,-36.37,0,*67
1487034413.68,60317,10.38,74284.3,-9.99,-35.83,-36.19,0,*5A
1487034414.92,60318,10.38,74288.0,-10.01,-35.95,-36.31,0,*61
1487034416.15,60319,10.38,74282.3,-9.99,-36.01,-36.31,0,*57
1487034417.41,60320,10.38,74288.0,-9.99,-36.01,-36.37,0,*5B
1487034418.68,60321,10.38,74290.8,-9.99,-36.13,-36.37,0,*59
1487034419.92,60322,10.38,74288.5,-10.01,-36.01,-36.37,0,*60
1487034421.18,60323,10.38,74284.5,-10.01,-36.13,-36.37,0,*62
1487034422.4,60324,10.38,74286.0,-10.01,-36.01,-36.31,0,*60
1487034423.61,60325,10.38,74290.0,-10.01,-36.19,-36.31,0,*68
1487034424.85,60326,10.38,74288.8,-9.99,-36.01,-36.31,0,*5B
1487034426.1,60327,10.38,74286.3,-9.99,-36.13,-36.31,0,*59
1487034427.36,60328,10.38,74290.0,-9.99,-36.01,-36.37,0,*53
1487034428.57,60329,10.38,74286.5,-10.01,-36.01,-36.31,0,*6D
1487034429.83,60330,10.38,74286.3,-9.99,-36.13,-36.31,0,*5F
1487034431.08,60331,10.38,74288.8,-9.99,-36.13,-36.19,0,*54
1487034432.33,60332,10.38,74290.0,-10.01,-35.95,-36.31,0,*69
1487034433.58,60333,10.38,74290.8,-10.01,-36.13,-36.37,0,*63
1487034434.84,60334,10.38,74288.0,-9.99,-36.01,-36.37,0,*5E
1487034436.08,60335,10.38,74290.0,-10.01,-36.01,-36.37,0,*66
1487034437.35,60336,10.38,74290.3,-9.99,-36.13,-36.37,0,*5F
1487034438.6,60337,10.38,74292.5,-9.99,-36.01,-36.37,0,*5D
1487034439.85,60338,10.38,74290.8,-10.01,-35.83,-36.31,0,*64
1487034441.1,60339,10.38,74290.0,-10.01,-35.83,-36.01,0,*66
1487034442.36,60340,10.38,74286.0,-10.01,-35.83,-36.13,0,*6B
1487034443.62,60341,10.38,74284.0,-9.99,-35.83,-36.19,0,*59
1487034444.87,60342,10.38,74288.3,-10.01,-35.95,-36.31,0,*6E
1487034446.11,60343,10.38,74284.3,-10.01,-35.83,-36.31,0,*68
1487034447.33,60344,10.38,74284.0,-10.01,-35.77,-36.01,0,*67
1487034448.62,60345,10.38,74284.8,-9.99,-35.83,-36.13,0,*57
1487034449.86,60346,10.38,74290.0,-10.01,-35.83,-36.19,0,*67
1487034451.1,60347,10.38,74286.8,-10.01,-35.95,-36.19,0,*61
1487034452.34,60348,10.38,74290.0,-10.01,-35.83,-36.31,0,*63
1487034453.6,60349,10.38,74288.8,-9.99,-36.13,-36.31,0,*51
1487034454.85,60350,10.38,74288.5,-9.99,-36.01,-36.37,0,*5C
1487034456.08,60351,10.38,74286.3,-9.99,-36.01,-36.19,0,*51
1487034457.37,60352,10.38,74290.3,-9.99,-35.95,-36.13,0,*56
1487034458.61,60353,10.38,74288.5,-10.01,-35.77,-36.13,0,*62
1487034459.86,60354,10.38,74290.8,-10.01,-35.83,-36.01,0,*6D
1487034461.14,60355,10.38,74290.5,-9.99,-35.65,-35.83,0,*54
1487034462.38,60356,10.38,74288.3,-9.99,-35.59,-35.77,0,*53
1487034463.64,60357,10.38,74288.5,-9.99,-35.59,-35.83,0,*59
1487034464.87,60358,10.38,74290.0,-9.97,-35.53,-35.77,0,*59
1487034466.11,60359,10.38,74288.5,-9.97,-35.77,-36.13,0,*5F
1487034467.35,60360,10.38,74288.8,-9.97,-35.77,-35.95,0,*58
1487034468.59,60361,10.38,74288.5,-9.95,-35.59,-35.77,0,*5B
1487034469.82,60362,10.38,74288.8,-9.95,-35.59,-35.77,0,*58
1487034471.05,60363,10.38,74286.8,-9.95,-35.89,-36.07,0,*50
1487034472.31,60364,10.38,74288.8,-9.95,-35.95,-36.31,0,*5F
1487034473.52,60365,10.38,74290.5,-9.97,-35.59,-35.77,0,*5D
1487034474.74,60366,10.38,74290.3,-9.97,-35.71,-35.89,0,*55
1487034475.97,60367,10.38,74288.0,-9.95,-35.71,-36.07,0,*53
1487034477.22,60368,10.38,74288.5,-9.95,-35.71,-36.13,0,*59
1487034478.46,60369,10.38,74288.3,-9.95,-35.77,-36.07,0,*5B
1487034479.69,60370,10.38,74290.3,-9.95,-35.77,-36.07,0,*53
1487034480.95,60371,10.38,74288.5,-9.95,-35.77,-36.13,0,*57
1487034482.19,60372,10.38,74288.8,-9.95,-35.77,-35.77,0,*55
1487034483.41,60373,10.38,74290.8,-9.95,-35.71,-36.07,0,*56
1487034484.65,60374,10.38,74290.3,-9.97,-35.77,-36.13,0,*50
1487034485.91,60375,10.38,74286.0,-9.95,-35.89,-36.25,0,*57
1487034487.2,60376,10.38,74288.8,-9.95,-35.95,-36.25,0,*59
1487034488.46,60377,10.38,74290.3,-9.95,-35.89,-36.25,0,*55
1487034489.72,60378,10.38,74288.5,-9.95,-35.95,-36.31,0,*52
1487034490.95,60379,10.38,74288.8,-9.97,-35.89,-36.13,0,*5C